TimePST,TemperatureF,Dew PointF,Humidity,Sea Level PressureIn,VisibilityMPH,Wind Direction,Wind SpeedMPH,Gust SpeedMPH,PrecipitationIn,Events,Conditions,WindDirDegrees,DateUTC
12:52 AM,59.0,44.1,58,30.09,10.0,Calm,Calm,-,N/A,,Partly Cloudy,0,2013-12-02 08:52:00
1:52 AM,57.0,43.0,59,30.06,10.0,Calm,Calm,-,N/A,,Partly Cloudy,0,2013-12-02 09:52:00
2:52 AM,57.0,45.0,64,30.06,10.0,Calm,Calm,-,N/A,,Partly Cloudy,0,2013-12-02 10:52:00
3:52 AM,55.9,41.0,57,30.04,10.0,East,3.5,-,N/A,,Partly Cloudy,100,2013-12-02 11:52:00
4:00 AM,-9999,-9999,N/A,-9999,-9999.0,North,-9999.0,-,N/A,,Unknown,0,2013-12-02 12:00:00
4:02 AM,-9999,-9999,N/A,-9999,-9999.0,North,-9999.0,-,N/A,,Unknown,0,2013-12-02 12:02:00
4:52 AM,57.0,37.0,47,30.06,10.0,Calm,Calm,-,N/A,,Partly Cloudy,0,2013-12-02 12:52:00
5:52 AM,55.9,41.0,57,30.06,10.0,East,3.5,-,N/A,,Mostly Cloudy,80,2013-12-02 13:52:00
6:52 AM,55.9,39.9,55,30.08,10.0,Calm,Calm,-,N/A,,Mostly Cloudy,0,2013-12-02 14:52:00
7:52 AM,63.0,46.0,54,30.08,10.0,Calm,Calm,-,N/A,,Mostly Cloudy,0,2013-12-02 15:52:00
8:52 AM,68.0,44.1,42,30.08,10.0,SE,3.5,-,N/A,,Mostly Cloudy,140,2013-12-02 16:52:00
9:52 AM,71.1,41.0,34,30.06,10.0,Calm,Calm,-,N/A,,Mostly Cloudy,0,2013-12-02 17:52:00
10:52 AM,73.0,34.0,24,30.06,10.0,Calm,Calm,-,N/A,,Mostly Cloudy,0,2013-12-02 18:52:00
11:52 AM,81.0,26.1,13,30.02,10.0,Calm,Calm,-,N/A,,Mostly Cloudy,0,2013-12-02 19:52:00
12:52 PM,80.1,28.9,15,29.99,10.0,WNW,3.5,-,N/A,,Mostly Cloudy,300,2013-12-02 20:52:00
1:52 PM,75.0,30.0,19,29.97,10.0,NNW,10.4,-,N/A,,Mostly Cloudy,340,2013-12-02 21:52:00
2:52 PM,73.9,34.0,23,29.95,10.0,NW,10.4,-,N/A,,Mostly Cloudy,320,2013-12-02 22:52:00
3:52 PM,73.0,36.0,26,29.94,10.0,NNW,6.9,-,N/A,,Mostly Cloudy,330,2013-12-02 23:52:00
4:52 PM,70.0,37.9,31,29.95,10.0,WSW,4.6,-,N/A,,Mostly Cloudy,250,2013-12-03 00:52:00
5:52 PM,66.9,46.9,49,29.94,10.0,North,4.6,-,N/A,,Mostly Cloudy,350,2013-12-03 01:52:00
6:52 PM,66.0,48.0,52,29.96,10.0,Calm,Calm,-,N/A,,Mostly Cloudy,0,2013-12-03 02:52:00
7:52 PM,66.0,48.0,52,29.95,10.0,Calm,Calm,-,N/A,,Mostly Cloudy,0,2013-12-03 03:52:00
8:52 PM,64.0,51.1,63,29.94,10.0,Calm,Calm,-,N/A,,Mostly Cloudy,0,2013-12-03 04:52:00
9:52 PM,62.1,51.1,67,29.92,10.0,West,3.5,-,N/A,,Mostly Cloudy,260,2013-12-03 05:52:00
10:52 PM,62.1,52.0,70,29.94,10.0,Calm,Calm,-,N/A,,Mostly Cloudy,0,2013-12-03 06:52:00
11:52 PM,60.1,51.1,72,29.92,10.0,South,4.6,-,N/A,,Mostly Cloudy,170,2013-12-03 07:52:00